This demonstration page uses our WeatherBlox Daily Observations layout. Learn more.

Left ArrowRight Arrow

Hourly Observations for October 22, 2016

Temp ( °F °C ) Dew Point ( °F °C ) Humidity (%) Winds ( mph kmh ) Pressure ( in mb ) Visibility ( mi km ) Precip ( " mm )
12:54 am 00:54 Clear 49 9.4 40 4.4 71 71 SSE 3 6 30.05 1018 10 16.0934 0 0
1:54 am 01:54 Clear 49 9.4 40 4.4 71 71 Calm 30.04 1017 10 16.0934 0 0
2:54 am 02:54 Clear 48 8.9 40 4.4 74 74 Calm 30.04 1017 10 16.0934 0 0
3:54 am 03:54 Clear 43 6.1 38 3.3 82 82 Calm 30.04 1017 10 16.0934 0 0
4:54 am 04:54 Clear 42 5.6 38 3.3 85 85 Calm 30.03 1017 10 16.0934 0 0
5:54 am 05:54 Clear 41 5 37 2.8 86 86 Calm 30.04 1017 10 16.0934 0 0
6:54 am 06:54 Clear 41 5 37 2.8 86 86 Calm 30.05 1018 10 16.0934 0 0
7:54 am 07:54 Sunny 36 2.2 34 1.1 93 93 Calm 30.05 1018 10 16.0934 0 0
8:54 am 08:54 Sunny 44 6.7 40 4.4 85 85 Calm 30.06 1018 10 16.0934 0 0
9:54 am 09:54 Sunny 50 10 43 6.1 77 77 Calm 30.06 1018 10 16.0934 0 0
10:54 am 10:54 Sunny 56 13.3 43 6.1 62 62 Calm 30.05 1018 10 16.0934 0 0
11:54 am 11:54 Sunny 63 17.2 43 6.1 48 48 ESE 3 6 30.02 1017 10 16.0934 0 0
12:54 pm 12:54 Sunny 70 21.1 43 6.1 38 38 SE 7 11 29.99 1016 10 16.0934 0 0
1:54 pm 13:54 Sunny 74 23.3 38 3.3 27 27 SE 12 19 29.95 1014 10 16.0934 0 0
2:54 pm 14:54 Sunny 76 24.4 42 5.6 30 30 SSE 12 19 29.91 1013 10 16.0934 0 0
3:54 pm 15:54 Sunny 76 24.4 39 3.9 26 26 SE 14 22 29.89 1012 10 16.0934 0 0
4:54 pm 16:54 Sunny 75 23.9 43 6.1 32 32 SSE 16 26 29.88 1012 10 16.0934 0 0
5:54 pm 17:54 Sunny 71 21.7 44 6.7 38 38 SSE 14 22 29.87 1012 10 16.0934 0 0
6:54 pm 18:54 Clear 64 17.8 45 7.2 50 50 SSE 9 15 29.87 1012 10 16.0934 0 0
7:54 pm 19:54 Clear 61 16.1 45 7.2 56 56 S 8 13 29.9 1012 10 16.0934 0 0
8:54 pm 20:54 Clear 57 13.9 45 7.2 64 64 S 6 9 29.89 1012 10 16.0934 0 0
9:54 pm 21:54 Clear 51 10.6 44 6.7 77 77 S 9 15 29.88 1012 10 16.0934 0 0
10:54 pm 22:54 Clear 54 12.2 45 7.2 72 72 S 7 11 29.88 1012 10 16.0934 0 0
11:54 pm 23:54 Clear 50 10 45 7.2 83 83 S 7 11 29.87 1011 10 16.0934 0 0

Powered by AerisWeather